Home   Weather   Schwechat   Past weeks

Flag for Austria Past Weather in Schwechat, Lower Austria, Austria — Yesterday and Last 2 Weeks

Now
52 °F

Partly sunny.


Feels Like: 50 °F
Forecast: 40 / 49 °F
Wind: 6 mph from North

Location: Vienna Schwechat-Flughafen Airport

Current Time: Apr 26, 2017 at 10:19:21 am

Latest Report: Apr 26, 2017 at 9:20 am


Visibility: N/A

Pressure: 29.71 "Hg

Humidity: 82%

Dew Point: 46 °F

Location of SchwechatLocation

Past Weather in Schwechat — Graph

°F

Schwechat Temperature Yesterday

Maximum temperature yesterday: 72 °F (at 3:20 pm)
Minimum temperature yesterday: 41 °F (at 2:50 am)
Average temperature yesterday: 56 °F

High & Low Weather Summary for the Past Weeks

 TemperatureHumidityPressure
High72 °F (Apr 25, 3:20 pm)100% (Apr 17, 9:20 pm)30.45 "Hg (Apr 17, 9:20 pm)
Low32 °F (Apr 19, 4:50 pm)38% (Apr 23, 12:50 pm)29.65 "Hg (Apr 25, 6:20 pm)
Average47 °F67%30.04 "Hg
* Reported Apr 11 9:20 am — Apr 26 9:20 am, Schwechat, Weather by CustomWeather, © 2017

Note: Actual official high and low records may vary slightly from our data, if they occured in-between our weather recording intervals... More about our weather records

Advertising

Schwechat Weather History for the Previous 24 Hours

Scroll right to see more
 ConditionsComfort  
Time TempWeatherWind HumidityBarometerVisibility
9:20 am
Wed, Apr 26
52 °FPartly sunny.6 mph82%29.71 "HgN/A
8:50 am50 °FSunny.7 mph88%29.71 "Hg10 mi
8:20 am48 °FSunny.5 mph94%29.71 "Hg10 mi
7:50 am48 °FSunny.5 mph94%29.71 "Hg10 mi
7:20 am46 °FSunny.5 mph93%29.71 "Hg10 mi
6:50 am46 °FSunny.3 mph93%29.71 "Hg10 mi
6:20 am48 °FSunny.2 mph87%29.71 "Hg10 mi
5:50 am46 °FSunny.3 mph93%29.71 "Hg10 mi
5:20 am46 °FClear.3 mph93%29.71 "Hg10 mi
4:50 am48 °FClear.1 mph82%29.71 "Hg10 mi
4:20 am48 °FClear.2 mph82%29.71 "Hg10 mi
3:50 am48 °FPassing clouds.2 mph82%29.71 "HgN/A
3:20 am50 °FPassing clouds.6 mph76%29.74 "HgN/A
2:50 am50 °FPassing clouds.5 mph76%29.74 "HgN/A
2:20 am50 °FPartly cloudy.5 mph76%29.74 "HgN/A
1:50 am54 °FPassing clouds.5 mph72%29.74 "HgN/A
1:20 am54 °FPassing clouds.6 mph72%29.77 "HgN/A
12:50 am54 °FPassing clouds.8 mph72%29.77 "HgN/A
12:20 am54 °FPassing clouds.6 mph72%29.74 "HgN/A
11:50 pm
Tue, Apr 25
54 °FPassing clouds.9 mph77%29.74 "HgN/A
11:20 pm55 °FClear.12 mph67%29.74 "Hg10 mi
10:50 pm55 °FPassing clouds.15 mph72%29.74 "HgN/A
10:20 pm57 °FClear.14 mph67%29.71 "Hg10 mi
9:50 pm57 °FClear.9 mph67%29.71 "Hg10 mi
9:20 pm59 °FClear.10 mph63%29.68 "Hg10 mi
8:50 pm57 °FClear.2 mph67%29.68 "Hg10 mi
8:20 pm63 °FClear.3 mph56%29.65 "Hg10 mi
7:50 pm63 °FSunny.2 mph56%29.65 "Hg10 mi
7:20 pm64 °FSunny.1 mph56%29.65 "Hg10 mi
6:50 pm64 °FSunny.8 mph56%29.65 "Hg10 mi
6:20 pm68 °FSunny.8 mph49%29.65 "Hg10 mi
5:50 pm68 °FSunny.9 mph49%29.68 "Hg10 mi
5:20 pm70 °FSunny.10 mph46%29.68 "Hg10 mi
4:50 pm70 °FSunny.10 mph46%29.68 "Hg10 mi
4:20 pm72 °FPassing clouds.9 mph44%29.68 "HgN/A
3:50 pm70 °FPartly sunny.9 mph40%29.68 "HgN/A
3:20 pm72 °FPartly sunny.10 mph41%29.71 "HgN/A
2:50 pm70 °FPartly sunny.10 mph40%29.71 "HgN/A
2:20 pm70 °FPartly sunny.13 mph40%29.71 "HgN/A
1:50 pm70 °FPartly sunny.12 mph46%29.71 "HgN/A
1:20 pm70 °FPartly sunny.3 mph43%29.71 "HgN/A
12:50 pm68 °FPartly sunny.5 mph43%29.74 "HgN/A
12:20 pm68 °FPartly sunny.9 mph43%29.74 "HgN/A
11:50 am66 °FPartly sunny.9 mph49%29.74 "HgN/A
11:20 am64 °FPartly sunny.10 mph56%29.74 "HgN/A
10:50 am61 °FScattered clouds.13 mph59%29.77 "HgN/A
10:20 am59 °FSunny.13 mph63%29.77 "Hg10 mi
Weather by CustomWeather, © 2017

See weather overviewHow to use our weather pages